Location: Essen
(51.4609°N, 7.0127°E)
Time: 00:18:09
(UTC+02:00)

ISS - Visible Passes

Search period start: 22 October 2019 00:00
Search period end: 31 October 2019 23:00
Orbit: 411 x 421 km, 51.6° (Epoch: 21 October)

Date Brightness Start Highest point End Pass type
(mag) Time Alt. Az. Time Alt. Az. Time Alt. Az.
25 Oct -1.5 07:36:36 10° SSW 07:39:27 26° SSE 07:42:19 10° E visible
26 Oct -1.1 06:48:38 10° S 06:51:01 18° SE 06:53:25 10° E visible
27 Oct -0.9 05:01:08 10° SSE 05:02:37 12° SE 05:04:06 10° ESE visible
27 Oct -2.8 06:35:30 10° SW 06:38:44 46° SSE 06:41:59 10° E visible
28 Oct -2.3 05:47:32 13° SW 05:50:12 34° SSE 05:53:18 10° E visible
29 Oct -1.9 05:01:15 24° SSE 05:01:41 24° SSE 05:04:30 10° E visible
29 Oct -3.6 06:34:44 10° WSW 06:38:06 74° SSE 06:41:28 10° E visible
30 Oct -0.6 04:14:49 13° ESE 04:14:49 13° ESE 04:15:31 10° E visible
30 Oct -3.4 05:47:44 25° SW 05:49:28 59° SSE 05:52:48 10° E visible
31 Oct -2.8 05:01:13 42° SE 05:01:13 42° SE 05:04:06 10° E visible
31 Oct -3.8 06:34:07 10° W 06:37:30 87° N 06:40:53 10° E visible
